Preview of NWS' New Version of Forecast
This preview is not operational and should not be used for support decisions.

Regional Weather Roundup (RWR)

Issued by Gray - Portland, ME (GYX)

                            
000
ASUS41 KGYX 210910
RWRGYX
WEATHER ROUNDUP FOR MAINE AND NEW HAMPSHIRE
NATIONAL WEATHER SERVICE GRAY ME
500 AM EDT SUN APR 21 2019

MEZ002-005-006-010-012-015-018-020-021-024-026-027-029-211000-
MAINE
  
CITY           SKY/WX    TMP DP  RH WIND       PRES   REMARKS
PORTLAND       FOG       51  49  92 S8        29.98S VSB 1/2          
SANFORD        CLOUDY    56  55  97 S3        29.98S                  
BAR HARBOR     LGT RAIN  52  52 100 S10       30.05S VSB 1            
WISCASSET      LGT RAIN  53  53 100 S8        30.01F                  
ROCKLAND       LGT RAIN  49  49 100 S7        30.03R VSB 3/4          
FRYEBURG       LGT RAIN  56  55  97 CALM      29.96R FOG              
LEWISTONAUBURN   N/A     53  53 100 SE9       29.98R FOG              
AUGUSTA        LGT RAIN  54  54 100 S15       29.99S VSB 1/2          
WATERVILLE     LGT RAIN  55  55 100 S9        29.96R                  
BANGOR         FOG       54  53  97 S10       30.01F VSB 1            
GREENVILLE       N/A     45  44  97 S6        29.96R                  
MILLINOCKET    FOG       40  39  97 VRB3      30.01F VSB 1/2          
HOULTON        CLOUDY    41  41 100 VRB6      30.02F FOG              
PRESQUE ISLE   CLOUDY    42  41  96 S15G23    30.02S FOG              
FRENCHVILLE    FOG       41  37  86 SE9       29.96F VSB 1/4          
CARIBOU        FOG       40  39  97 CALM      30.00R VSB 1/2          
$$

NHZ002-005-008-009-011-012-014-211000-
NEW HAMPSHIRE
  
CITY           SKY/WX    TMP DP  RH WIND       PRES   REMARKS
PORTSMOUTH     CLOUDY    53  53  99 CALM      29.97R FOG              
ROCHESTER      FOG       57  57 100 SE3       29.97R VSB 1/4          
NASHUA         CLOUDY    58  58 100 CALM      29.96S                  
MANCHESTER     CLOUDY    59  57  93 S6        29.95R                  
CONCORD        CLOUDY    57  56  96 SE6       29.96R                  
LACONIA        CLOUDY    55  55 100 NE3       29.96R                  
PLYMOUTH       FOG       53  51  95 CALM      29.95S VSB 1            
BERLIN         CLOUDY    57  55  93 E5        29.92F                  
WHITEFIELD     MOCLDY    60  51  72 S6        29.91F                  
JAFFREY        MOCLDY    54  52  93 CALM      29.95F                  
KEENE          CLOUDY    53  53 100 CALM      29.95S                  
LEBANON        FAIR      53  49  86 CALM      29.93R                  
MT WASHINGTON  LGT RAIN  41  41 100 S37G46      N/A  VSB 1/16         
$$

VTZ005-007-008-211000-
VERMONT
  
CITY           SKY/WX    TMP DP  RH WIND       PRES   REMARKS
ST JOHNSBURY     N/A     54  52  93 MISG      29.90S                  
MONTPELIER     FAIR      53  48  83 S13       29.93R                  
BURLINGTON     FAIR      52  47  83 S6        29.87R                  
$$

MAZ007-012-024-CTZ003-RIZ002-NYZ038-NYZ072-211000-
SOUTHERN NEW ENGLAND AND NY
  
CITY           SKY/WX    TMP DP  RH WIND       PRES   REMARKS
BOSTON         CLOUDY    59  56  89 S5        29.97R                  
WORCESTER      CLOUDY    53  52  96 S8        29.95F                  
NANTUCKET      CLOUDY    52  51  97 SE12      30.00F FOG              
PROVIDENCE     CLOUDY    55  54  96 S7        29.99R                  
HARTFORD       MOCLDY    55  53  93 W3        29.93S                  
ALBANY         CLOUDY    54  48  80 S8        29.90R                  
NEW YORK CITY  MOCLDY    53  49  86 SE6       29.89R                  
$$

ANZ081-ANZ082-ANZ150-NHZ014-MEZ023>029-211000-
COASTAL MARINE OBSERVATIONS
  
STATION/POSITION TIME  TEMP    WIND        PRES    WAVE
                       AIR SEA DIR/SP/G            HT/PER
                 (UTC) (F)     (DEG/KT/KT) (MB)    (FT/S)
ISLE OF SHOALS   0800   49     170/ 17/ 18 1014.7R
$$

.............KEY..............
   WCI - WIND CHILL
   TC  - TEMPERATURE IN CELSIUS
   VSB - VISIBILITY IN MILES
   HX  - HEAT INDEX
   FAIR- INDICATES FEW OR NO CLOUDS BELOW 12,000 FT, WITH NO 
         SIGNIFICANT WEATHER AND/OR OBSTRUCTIONS TO VISIBILITY.